Weather History for Chicago, IL

Change the Weather History Date:

Wednesday, February 19, 2014

  Actual Average Record
Temperature  
Mean Temperature 37 °F 29 °F  
Max Temperature 44 °F 37 °F 65 °F (1930)
Min Temperature 30 °F 21 °F -7 °F (1936)
Degree Days  
Heating Degree Days 28 36  
Month to date heating degree days 938 734  
Since 1 July heating degree days 5025 4424  
Cooling Degree Days 0 0  
Month to date cooling degree days 0 0  
Year to date cooling degree days 0 0  
Moisture  
Dew Point 25 °F    
Average Humidity 58    
Maximum Humidity 75    
Minimum Humidity 41    
Precipitation  
Precipitation 0.00 in 0.07 in 0.95 in (1994)
Month to date precipitation 1.32 1.11  
Year to date precipitation 4.14 2.84  
Snow  
Snow 0.00 in 0.30 in 4.00 in (1898)
Month to date snowfall 19.1 6.5  
Since 1 July snowfall 67.9 27.0  
Snow Depth 7.00 in    
Sea Level Pressure  
Sea Level Pressure 29.87 in    
Wind  
Wind Speed 7 mph (WSW)    
Max Wind Speed 15 mph    
Max Gust Speed 19 mph    
Visibility 10 miles    
Events      
T = Trace of Precipitation, MM = Missing Value Source: NWS Daily Summary

Daily Weather History Graph

Daily Weather History Graph

Search for Another Location

Airport:

Trip Planner

Search our weather history database for the weather conditions in past years. The results will help you decide how hot, cold, wet, or windy it might be!

Date:

Astronomy

Feb. 19, 2014 Rise Set
Actual Time 6:41 AM CST 5:29 PM CST
Civil Twilight 6:13 AM CST 5:58 PM CST
Nautical Twilight 5:41 AM CST 6:30 PM CST
Astronomical Twilight 5:08 AM CST 7:03 PM CST
Moon 10:28 PM CST (2/19) 8:42 AM CST (2/19)
Length of Visible Light 11h 44m
Length of Day
10h 47m
Waning Gibbous, 79% of the Moon is Illuminated
Feb 19
Waning Gibbous
Feb 22
Last Quarter
Mar 1
New
Mar 8
First Quarter
Mar 16
Full

Hourly Weather History & Observations

Time (CST) Temp. Windchill Dew Point Humidity Pressure Visibility Wind Dir Wind Speed Gust Speed Precip Events Conditions
12:51 AM 35.1 °F 30.1 °F 25.0 °F 67% 29.65 in 10.0 mi West 5.8 mph - N/A   Clear
1:51 AM 33.1 °F 28.7 °F 25.0 °F 72% 29.65 in 10.0 mi WSW 4.6 mph - N/A   Mostly Cloudy
2:51 AM 32.0 °F 24.8 °F 24.1 °F 73% 29.68 in 10.0 mi West 8.1 mph - N/A   Mostly Cloudy
3:51 AM 33.1 °F 28.7 °F 25.0 °F 72% 29.69 in 10.0 mi West 4.6 mph - N/A   Mostly Cloudy
4:43 AM 34.0 °F 26.0 °F 25.0 °F 70% 29.72 in 10.0 mi West 10.4 mph - N/A   Overcast
4:51 AM 34.0 °F 26.6 °F 25.0 °F 70% 29.73 in 10.0 mi West 9.2 mph - N/A   Overcast
5:11 AM 34.0 °F 25.5 °F 25.0 °F 70% 29.73 in 10.0 mi West 11.5 mph - N/A   Overcast
5:51 AM 34.0 °F 26.6 °F 25.0 °F 70% 29.78 in 10.0 mi West 9.2 mph - N/A   Mostly Cloudy
6:51 AM 30.9 °F 24.3 °F 23.0 °F 72% 29.82 in 10.0 mi West 6.9 mph - N/A   Partly Cloudy
7:51 AM 34.0 °F 25.5 °F 25.0 °F 70% 29.85 in 10.0 mi WNW 11.5 mph - N/A   Clear
8:51 AM 37.0 °F 29.8 °F 26.1 °F 65% 29.87 in 10.0 mi WNW 10.4 mph - N/A   Clear
9:51 AM 39.0 °F 32.3 °F 25.0 °F 57% 29.88 in 10.0 mi NW 10.4 mph - N/A   Clear
10:51 AM 39.2 °F 33.0 °F 28.4 °F 65% 29.90 in 10.0 mi WSW 9.2 mph - N/A   Clear
11:51 AM - - - N/A% - - North - - N/A   Unknown
11:54 AM 40.8 °F 35.0 °F 27.7 °F 60% 29.92 in 10.0 mi West 9.2 mph - N/A   Clear
12:51 PM 43.0 °F 38.2 °F 26.1 °F 51% 29.92 in 10.0 mi West 8.1 mph - N/A   Partly Cloudy
1:51 PM 44.1 °F 39.5 °F 23.0 °F 43% 29.93 in 10.0 mi West 8.1 mph - N/A   Partly Cloudy
2:51 PM 43.0 °F 35.7 °F 23.0 °F 45% 29.96 in 10.0 mi WSW 15.0 mph - N/A   Partly Cloudy
3:51 PM 42.1 °F 37.1 °F 23.0 °F 47% 29.97 in 10.0 mi WSW 8.1 mph - N/A   Partly Cloudy
4:21 PM 42.1 °F 37.1 °F 23.0 °F 47% 29.96 in 10.0 mi WSW 8.1 mph - N/A   Clear
4:51 PM 41.0 °F 36.4 °F 23.0 °F 49% 29.98 in 10.0 mi SW 6.9 mph - N/A   Mostly Cloudy
5:51 PM 37.9 °F 31.5 °F 25.0 °F 60% 29.97 in 10.0 mi SSW 9.2 mph - N/A   Scattered Clouds
6:51 PM 34.0 °F 31.0 °F 24.1 °F 67% 29.97 in 10.0 mi South 3.5 mph - N/A   Scattered Clouds
7:51 PM 33.1 °F 26.9 °F 25.0 °F 72% 29.96 in 10.0 mi South 6.9 mph - N/A   Mostly Cloudy
8:51 PM 32.0 °F 25.6 °F 24.1 °F 73% 29.98 in 10.0 mi South 6.9 mph - N/A   Mostly Cloudy
9:51 PM 33.1 °F 26.1 °F 26.1 °F 75% 29.96 in 10.0 mi South 8.1 mph - N/A   Overcast
10:51 PM 34.0 °F 27.2 °F 27.0 °F 75% 29.95 in 10.0 mi SSE 8.1 mph - N/A   Overcast
11:51 PM 34.0 °F 28.0 °F 27.0 °F 75% 29.93 in 9.0 mi SSE 6.9 mph - N/A   Overcast